Home   Weather   Brilon   Past weeks

Flag for Germany Past Weather in Brilon, North Rhine-Westphalia, Germany — Yesterday and Last 2 Weeks

Now
46 °F

Clear.


Feels Like: 44 °F
Forecast: 34 / 44 °F
Wind: 5 mph from Southwest

Location: Paderborn / Lippstadt

Current Time: Apr 25, 2017 at 1:03:48 am

Latest Report: Apr 25, 2017 at 12:20 am


Visibility: 10 mi

Pressure: 29.71 "Hg

Humidity: 76%

Dew Point: 39 °F

Location of BrilonLocation

Past Weather in Brilon — Graph

°F

Brilon Temperature Yesterday

Maximum temperature yesterday: 55 °F (at 12:20 pm)
Minimum temperature yesterday: 34 °F (at 12:20 am)
Average temperature yesterday: 47 °F

High & Low Weather Summary for the Past Weeks

 TemperatureHumidityPressure
High55 °F (Apr 24, 12:20 pm)100% (Apr 22, 3:50 am)30.60 "Hg (Apr 22, 3:50 am)
Low27 °F (Apr 20, 5:50 am)34% (Apr 20, 6:20 pm)29.71 "Hg (Apr 24, 11:50 pm)
Average43 °F62%30.29 "Hg
* Reported Apr 19 8:50 am — Apr 24 11:50 pm, Brilon, Weather by CustomWeather, © 2017

Note: Actual official high and low records may vary slightly from our data, if they occured in-between our weather recording intervals... More about our weather records

Advertising

Brilon Weather History for the Previous 24 Hours

Scroll right to see more
 ConditionsComfort  
Time TempWeatherWind HumidityBarometerVisibility
11:50 pm
Mon, Apr 24
48 °FClear.5 mph71%29.71 "Hg10 mi
11:20 pm46 °FClear.2 mph76%29.74 "Hg10 mi
10:50 pm48 °FClear.5 mph71%29.74 "Hg10 mi
10:20 pm48 °FClear.3 mph66%29.77 "Hg10 mi
9:50 pm48 °FClear.3 mph62%29.77 "Hg10 mi
9:20 pm45 °FClear.7 mph71%29.77 "Hg10 mi
8:50 pm46 °FClear.7 mph66%29.80 "Hg10 mi
8:20 pm50 °FSunny.7 mph58%29.80 "Hg10 mi
7:50 pm54 °FSunny.8 mph47%29.80 "Hg10 mi
7:20 pm54 °FSunny.9 mph47%29.80 "Hg10 mi
6:50 pm55 °FSunny.8 mph41%29.83 "Hg10 mi
6:20 pm55 °FSunny.13 mph44%29.83 "Hg10 mi
5:50 pm55 °FSunny.12 mph41%29.83 "Hg10 mi
5:20 pm55 °FPassing clouds.10 mph41%29.86 "HgN/A
4:50 pm55 °FPassing clouds.10 mph41%29.86 "HgN/A
4:20 pm55 °FPassing clouds.13 mph41%29.89 "HgN/A
3:50 pm55 °FPassing clouds.16 mph41%29.89 "HgN/A
3:20 pm55 °FPassing clouds.14 mph41%29.89 "HgN/A
2:50 pm55 °FPassing clouds.17 mph41%29.92 "HgN/A
2:20 pm55 °FPassing clouds.15 mph41%29.92 "HgN/A
1:50 pm55 °FPassing clouds.18 mph44%29.95 "HgN/A
1:20 pm54 °FPassing clouds.14 mph44%29.95 "HgN/A
12:50 pm54 °FPartly sunny.12 mph41%29.98 "HgN/A
12:20 pm55 °FScattered clouds.17 mph44%29.98 "HgN/A
11:50 am52 °FScattered clouds.14 mph50%29.98 "HgN/A
11:20 am52 °FSunny.20 mph47%30.01 "Hg10 mi
10:50 am50 °FSunny.18 mph47%30.01 "Hg10 mi
10:20 am48 °FSunny.15 mph50%30.01 "Hg10 mi
9:50 am48 °FSunny.17 mph54%30.04 "Hg10 mi
9:20 am46 °FSunny.14 mph57%30.04 "Hg10 mi
8:50 am45 °FSunny.14 mph61%30.04 "Hg10 mi
8:20 am41 °FSunny.13 mph66%30.07 "Hg10 mi
7:50 am39 °FSunny.13 mph70%30.07 "Hg10 mi
7:20 am39 °FSunny.13 mph65%30.07 "Hg10 mi
6:50 am37 °FSunny.10 mph75%30.07 "Hg10 mi
6:20 am37 °FSunny.10 mph75%30.07 "Hg10 mi
5:50 am37 °FClear.12 mph75%30.09 "Hg10 mi
5:20 am36 °FClear.10 mph81%30.09 "Hg10 mi
4:20 am37 °FClear.8 mph81%30.12 "Hg10 mi
3:50 am37 °FClear.9 mph81%30.12 "Hg10 mi
3:20 am37 °FPassing clouds.9 mph81%30.15 "HgN/A
2:50 am37 °FPassing clouds.9 mph81%30.15 "HgN/A
2:20 am37 °FPassing clouds.9 mph81%30.15 "HgN/A
1:50 am39 °FPassing clouds.8 mph75%30.18 "HgN/A
1:20 am39 °FClear.8 mph75%30.18 "Hg10 mi
Weather by CustomWeather, © 2017

See weather overviewHow to use our weather pages